DateTimeUTC,F1_A11,F1_S11,BsB_S11,BsG_S11,BsR_S11,BbsB_S11,BbsG_S11,BbsR_S11,BaB_A11,BaG_A11,BaR_A11,Tu_S11,T_S11,Uu_S11,U_S11,P_S11,T1_A11
2021-10-14T20:00:00Z,00000200,20000000,,,,,,,0000.41,0000.22,0000.34,17.5,24.4,01.5,01.0,0666.9,31.0
2021-10-14T20:01:00Z,00000200,20000000,,,,,,,0000.06,0000.03,-000.33,17.5,24.4,01.5,01.0,0666.9,31.0
2021-10-14T20:02:00Z,00000200,20000000,,,,,,,-000.10,-000.08,0000.29,17.6,24.4,01.5,01.0,0666.9,31.0
2021-10-14T20:03:00Z,00000200,60000000,,,,,,,-000.53,-000.44,-000.66,17.6,24.4,01.5,01.0,0666.9,31.0
2021-10-14T20:04:00Z,00000200,41000000,-000.05,0000.22,0000.14,-000.01,0000.22,0000.11,-000.09,0000.38,0000.02,17.8,24.3,01.5,01.0,0667.8,31.0
2021-10-14T20:05:00Z,00000200,01000000,0001.00,0000.11,-000.12,0000.56,0000.19,0000.08,0000.35,-000.56,-000.06,17.9,24.3,01.5,01.0,0668.0,31.0
2021-10-14T20:06:00Z,00000200,01000000,0000.09,0000.69,0000.13,-000.66,0000.17,-000.13,-000.46,-000.37,0000.48,17.8,24.2,01.5,01.0,0668.0,31.0
2021-10-14T20:07:00Z,00000200,01000000,-000.10,0000.26,0000.27,-000.04,0000.17,-000.08,0000.03,0000.15,-000.27,17.7,24.2,01.5,01.0,0668.0,30.9
2021-10-14T20:08:00Z,00000200,01000000,0000.08,0000.21,0000.07,0000.28,0000.04,-000.13,-000.08,-000.15,-000.27,17.7,24.2,01.5,01.0,0668.0,30.9
2021-10-14T20:09:00Z,00000200,01000000,0000.20,0000.17,0000.25,0000.45,-000.15,0000.16,0000.33,0000.01,0000.10,17.6,24.1,01.4,01.0,0668.0,30.9
2021-10-14T20:10:00Z,00000200,01000000,0000.26,0000.07,0000.02,0000.25,0000.21,0000.23,-000.39,0000.01,-000.02,17.6,24.1,01.5,01.0,0668.0,30.9
2021-10-14T20:11:00Z,00000200,01000000,0001.09,-000.00,0000.28,-000.43,0000.48,0000.24,0000.16,0000.11,-000.21,17.5,24.1,01.5,01.0,0668.0,30.9
2021-10-14T20:12:00Z,00000200,01000000,0000.57,0000.06,0000.38,0000.30,0000.16,0000.12,0000.26,0000.12,0000.28,17.5,24.1,01.5,01.0,0668.1,30.9
2021-10-14T20:13:00Z,00000200,01000000,0000.66,0000.55,0000.60,0000.24,0000.37,0000.04,-000.15,0000.32,0000.27,17.6,24.1,01.4,00.9,0668.0,30.9
2021-10-14T20:14:00Z,00000200,01000000,0000.07,0000.16,-000.01,-000.44,-000.13,-000.09,0000.30,0000.02,-000.34,17.6,24.1,01.4,00.9,0668.1,31.0
2021-10-14T20:15:00Z,00000200,01000000,-000.27,0000.45,-000.14,0000.12,0000.15,-000.09,-000.56,-000.27,0000.57,17.7,24.1,01.4,00.9,0668.1,31.0
2021-10-14T20:16:00Z,00000200,01000000,-000.32,-000.14,0000.11,0000.48,-000.06,-000.16,0000.34,0000.51,-000.16,17.8,24.2,01.4,00.9,0668.0,31.0
2021-10-14T20:17:00Z,00000200,01000000,-000.41,0000.30,0000.19,0000.26,0000.36,0000.09,-000.04,-000.54,0000.11,17.9,24.2,01.4,00.9,0668.1,31.0
2021-10-14T20:18:00Z,00000200,01000000,0000.63,0000.45,0000.40,0000.73,0000.17,-000.01,0000.04,0000.36,-000.17,18.0,24.3,01.4,00.9,0668.1,31.0
2021-10-14T20:19:00Z,00000200,01000000,0000.10,0000.44,0000.02,-000.25,0000.40,-000.25,-000.32,-000.19,-000.20,18.0,24.3,01.3,00.9,0668.1,31.0
2021-10-14T20:20:00Z,00000200,01000000,0000.27,0000.39,0000.01,0000.45,0000.11,0000.13,0000.12,-000.15,-000.40,18.1,24.3,01.2,00.8,0668.1,31.0
2021-10-14T20:21:00Z,00000200,01000000,0000.31,0000.24,0000.16,0000.29,0000.47,0000.19,-000.32,-000.07,-000.03,18.0,24.3,01.3,00.9,0668.2,31.0
2021-10-14T20:22:00Z,00000200,01000000,0000.61,0000.40,-000.20,-000.30,-000.18,-000.17,0000.04,-000.60,-000.08,17.9,24.3,01.2,00.8,0668.2,31.0
2021-10-14T20:23:00Z,00000200,01000000,0000.38,0000.23,0000.01,0000.11,0000.31,-000.07,-000.12,0000.42,0000.20,17.9,24.2,01.3,00.9,0668.2,31.0
2021-10-14T20:24:00Z,00000200,01010000,0000.36,0000.31,0000.21,0000.18,0000.28,-000.01,0000.06,-000.33,0000.09,17.8,24.2,01.2,00.8,0668.2,31.0
2021-10-14T20:25:00Z,00000200,01000000,0000.00,0000.74,-000.06,0000.43,0000.18,-000.21,-000.29,-000.08,-000.40,17.7,24.2,01.2,00.8,0668.2,30.9
2021-10-14T20:26:00Z,00000200,01000000,-000.02,0000.15,0000.23,-000.08,0000.07,0000.29,-000.14,-000.01,0000.32,17.7,24.1,01.2,00.8,0668.3,30.9
2021-10-14T20:27:00Z,00000200,01000000,-000.51,0000.29,0000.09,0000.59,0000.16,0000.20,0000.23,0000.10,-000.54,17.7,24.1,01.2,00.8,0668.3,31.0
2021-10-14T20:28:00Z,00000200,01000000,-000.13,-000.17,0000.09,0000.62,0000.14,-000.03,0000.05,0000.14,0000.60,17.7,24.1,01.2,00.8,0668.3,31.0
2021-10-14T20:29:00Z,00000200,01000000,-000.12,0000.46,0000.07,-000.64,0000.10,-000.09,-000.14,0000.03,-000.35,17.8,24.2,01.2,00.8,0668.3,31.0
2021-10-14T20:30:00Z,00000200,01000000,0000.06,0000.29,-000.09,0000.37,0000.12,0000.03,0000.18,0000.11,0000.29,17.9,24.2,01.0,00.7,0668.3,31.0
2021-10-14T20:31:00Z,00000200,01000000,0000.12,0000.29,0000.13,-000.11,-000.05,-000.18,0000.08,-000.28,-000.11,17.9,24.2,01.2,00.8,0668.2,31.0
2021-10-14T20:32:00Z,00000200,01000000,0000.67,0000.38,0000.31,-000.01,0000.36,0000.07,-000.15,0000.03,0000.01,18.0,24.2,01.1,00.7,0668.2,31.0
2021-10-14T20:33:00Z,00000200,01000000,0000.89,0000.33,-000.29,0000.39,0000.15,-000.22,-000.06,-000.32,-000.30,18.0,24.3,01.2,00.8,0668.2,31.0
2021-10-14T20:34:00Z,00000200,01000000,0000.68,-000.04,0000.39,0000.17,0000.46,0000.41,-000.30,-000.17,0000.00,17.9,24.3,01.2,00.8,0668.2,31.0
2021-10-14T20:35:00Z,00000200,01000000,0000.48,0000.49,-000.09,0000.05,0000.12,-000.22,-000.32,0000.12,-000.03,17.9,24.2,01.1,00.8,0668.3,31.0
2021-10-14T20:36:00Z,00000200,01000000,0000.24,0000.30,-000.02,0000.09,0000.20,0000.16,-000.05,-000.23,-000.38,17.8,24.2,01.0,00.7,0668.3,31.0
2021-10-14T20:37:00Z,00000200,01000000,-000.18,0000.50,-000.01,0000.40,0000.32,-000.11,0000.07,-000.52,0000.25,17.7,24.2,01.1,00.7,0668.3,31.0
2021-10-14T20:38:00Z,00000200,01000000,0000.14,0000.40,0000.38,0000.24,0000.38,-000.02,-000.44,0000.40,-000.19,17.7,24.1,01.0,00.7,0668.3,30.9
2021-10-14T20:39:00Z,00000200,01000000,0000.54,0000.51,0000.12,-000.26,0000.20,0000.51,0000.22,-000.17,-000.19,17.6,24.1,01.0,00.7,0668.3,30.9
2021-10-14T20:40:00Z,00000200,01000000,-000.17,-000.30,0000.08,-000.18,0000.16,0000.00,0000.05,-000.04,0000.11,17.6,24.1,01.0,00.7,0668.3,30.9
2021-10-14T20:41:00Z,00000200,01000000,0000.06,0000.54,-000.08,0000.16,0000.45,-000.02,-000.20,0000.23,0000.43,17.5,24.0,00.9,00.6,0668.3,30.9
2021-10-14T20:42:00Z,00000200,01000000,0000.75,-000.00,0000.03,0000.24,0000.19,-000.16,0000.42,0000.18,-000.35,17.5,24.0,01.0,00.7,0668.3,30.9
2021-10-14T20:43:00Z,00000200,01000000,0000.65,0000.29,-000.19,0000.33,0000.21,0000.03,0000.06,-000.05,0000.34,17.6,24.0,01.1,00.7,0668.3,30.9
2021-10-14T20:44:00Z,00000200,01000000,-000.20,0000.08,0000.13,0000.35,0000.29,0000.09,-000.26,-000.04,-000.12,17.6,24.0,01.0,00.7,0668.3,30.9
2021-10-14T20:45:00Z,00000200,01000000,-000.30,0000.25,-000.21,0000.10,0000.51,0000.29,-000.12,-000.35,-000.04,17.7,24.1,01.0,00.7,0668.4,31.0
2021-10-14T20:46:00Z,00000200,01000000,0000.39,0000.32,0000.02,-000.40,0000.50,-000.15,0000.11,0000.40,-000.04,17.8,24.1,00.9,00.6,0668.4,31.0
2021-10-14T20:47:00Z,00000200,01000000,-000.20,0000.49,-000.05,0000.23,0000.23,0000.11,0000.04,-000.59,-000.18,17.8,24.2,01.0,00.7,0668.3,31.0
2021-10-14T20:48:00Z,00000200,01000000,-000.12,0000.09,0000.18,-000.42,0000.10,0000.11,-000.25,0000.16,0000.19,17.8,24.2,00.9,00.6,0668.4,31.0
2021-10-14T20:49:00Z,00000200,01000000,0000.86,0000.32,0000.03,0000.02,0000.48,0000.46,-000.29,0000.12,-000.43,17.8,24.2,00.9,00.6,0668.3,31.0
2021-10-14T20:50:00Z,00000200,01000000,0000.43,0000.34,0000.09,0000.07,0000.00,0000.34,0000.12,-000.22,-000.09,17.7,24.1,01.0,00.7,0668.3,30.9
2021-10-14T20:51:00Z,00000200,01000000,-000.13,0000.48,0000.22,0000.24,0000.68,0000.26,-000.04,-000.28,-000.19,17.6,24.1,00.9,00.6,0668.4,30.9
2021-10-14T20:52:00Z,00000200,01000000,0000.11,0000.31,0000.09,-000.48,0000.38,0000.34,-000.15,-000.12,0000.09,17.6,24.1,00.8,00.6,0668.4,30.9
2021-10-14T20:53:00Z,00000200,01000000,-000.12,0000.35,0000.38,-000.22,0000.16,0000.32,-000.16,-000.25,-000.26,17.5,24.0,00.9,00.6,0668.4,30.9
2021-10-14T20:54:00Z,00000200,01000000,0000.01,0000.07,0000.35,-000.17,0000.22,-000.02,-000.05,0000.07,0000.29,17.5,24.0,00.8,00.5,0668.3,30.9
2021-10-14T20:55:00Z,00000200,01000000,-000.00,0000.33,-000.22,0000.45,0000.42,0000.09,-000.19,0000.24,-000.10,17.4,24.0,00.8,00.6,0668.4,30.9
2021-10-14T20:56:00Z,00000200,01000000,-000.23,0000.64,-000.28,0000.23,0000.52,-000.18,0000.34,0000.05,-000.03,17.4,23.9,00.8,00.6,0668.4,30.9
2021-10-14T20:57:00Z,00000200,41000000,,,,,,,0000.67,0000.54,0000.82,17.4,23.9,01.2,00.8,0668.3,30.9
2021-10-14T20:58:00Z,00000200,61000000,,,,,,,-000.49,-000.04,-000.77,17.1,24.1,00.9,00.6,0667.4,30.9
2021-10-14T20:59:00Z,00000200,21000000,,,,,,,-000.24,-000.30,0000.16,17.2,24.2,00.9,00.6,0667.4,31.0
